Current Conditions
Clear
Conditions



Pressure
1019.92 (hPa) - 30.12 (inHG)
Visibility

10.0 (km) - 6.2 (miles)
   Temperature
3  °C
37°F
2  °C
Dewpoint
93  %
 Humidity
   Wind Speed
5  km/h
3  kts
3  mph
1.3  m/s
   Wind Direction
Calm
Due North
   Airport Data
EDLV
Location Weeze Airport 20 km (12.43 mi)
Metar :EDLV 280750Z VRB03KT CAVOK 03/02 Q1020
Sat 28th November 09:50 am
   Raw Metar Info
Raw METAR is the most common format in the world for the transmission of observational weather data. It is highly standardized through the International Civil Aviation Organization (ICAO), which allows it to be understood throughout most of the world.
   API Info
Data Provided by
https://www.checkwx.com/weather/EDLV
   © Info
CSS/SVG/PHP scripts were developed by weather34.com for use in the weather34 template © 2015-2020

Guide Info provided by Metar-Wikipedia